Erie, PA

10:54 AM EST on December 14, 2019 (GMT -0500)
Erie International

Weather History for KERI - October, 2019

Change the Weather History Date:

Tuesday, October 1, 2019

  Actual Average Record
Temperature  
Mean Temperature 81 °F 58 °F  
Max Temperature 89 °F 66 °F 86 °F (1927)
Min Temperature 72 °F 50 °F 36 °F (1956)
Degree Days  
Heating Degree Days 0 8  
Month to date heating degree days 8  
Since 1 July heating degree days 132  
Cooling Degree Days 16 1  
Month to date cooling degree days 1  
Year to date cooling degree days 630  
Growing Degree Days 31 (Base 50)    
Moisture  
Dew Point 66 °F    
Average Humidity 67    
Maximum Humidity 81    
Minimum Humidity 43    
Precipitation  
Precipitation 0.00 in 0.15 in 2.24 in (1945)
Month to date precipitation 0.15  
Year to date precipitation 30.59  
Snow  
Snow - 0.00 in - ()
Month to date snowfall 0.0  
Since 1 July snowfall 0.0  
Since 1 September snowfall 0.0  
Snow Depth -    
Sea Level Pressure  
Sea Level Pressure 29.97 in    
Wind  
Wind Speed 9 mph ()    
Max Wind Speed 14 mph    
Max Gust Speed 24 mph    
Visibility 10.0 miles    
Events Rain    
T = Trace of Precipitation, MM = Missing Value Source: Averaged Metar Reports

Daily Weather History Graph

Daily Weather History Graph

Search for Another Location

Airport or City:

Astronomy

Oct. 01, 2019 Rise Set
Actual Time 7:17 AM EDT 7:02 PM EDT
Civil Twilight 6:49 AM EDT 7:30 PM EDT
Nautical Twilight 6:17 AM EDT 8:02 PM EDT
Astronomical Twilight 5:44 AM EDT 8:35 PM EDT
Moon 10:34 AM EDT (10/1) 9:11 PM EDT (10/1)
Length of Visible Light 12h 40m
Length of Day
11h 45m
Waxing Crescent, 12% of the Moon is Illuminated
Oct 1
Waxing Crescent
Oct 5
First Quarter
Oct 13
Full
Oct 21
Last Quarter
Oct 27
New

Hourly Weather History & Observations

Time (EDT) Temp. Heat Index Dew Point Humidity Pressure Visibility Wind Dir Wind Speed Gust Speed Precip Events Conditions
12:51 AM 73.0 °F - 66.9 °F 81% 30.01 in 10.0 mi South 12.7 mph - N/A   Clear
1:51 AM 73.0 °F - 66.9 °F 81% 30.01 in 10.0 mi South 10.4 mph - N/A   Clear
2:51 AM 73.0 °F - 66.0 °F 79% 30.02 in 10.0 mi South 12.7 mph - N/A   Clear
3:51 AM 73.9 °F - 66.0 °F 76% 30.01 in 10.0 mi South 9.2 mph - N/A   Overcast
4:51 AM 75.0 °F - 66.0 °F 73% 30.00 in 10.0 mi South 9.2 mph - N/A   Mostly Cloudy
5:51 AM 75.0 °F - 66.0 °F 73% 30.00 in 10.0 mi SSW 8.1 mph - N/A   Overcast
6:51 AM 73.9 °F - 66.0 °F 76% 30.00 in 10.0 mi SSW 8.1 mph - N/A   Scattered Clouds
7:51 AM 73.9 °F - 64.9 °F 73% 30.00 in 10.0 mi South 9.2 mph - N/A   Clear
8:51 AM 77.0 °F - 66.0 °F 69% 29.99 in 10.0 mi South 9.2 mph - N/A   Clear
9:51 AM 81.0 °F 83.3 °F 66.9 °F 62% 29.99 in 10.0 mi SSW 10.4 mph - N/A   Clear
10:51 AM 84.0 °F 86.5 °F 66.9 °F 56% 29.98 in 10.0 mi SSW 12.7 mph - N/A   Clear
11:51 AM 87.1 °F 89.9 °F 66.9 °F 51% 29.96 in 10.0 mi SW 9.2 mph - N/A   Clear
12:51 PM 89.1 °F 90.3 °F 64.0 °F 43% 29.95 in 10.0 mi SW 13.8 mph 23.0 mph N/A   Clear
1:51 PM 84.9 °F 86.6 °F 64.9 °F 51% 29.96 in 10.0 mi West 10.4 mph 20.7 mph N/A   Clear
2:51 PM 86.0 °F 87.6 °F 64.9 °F 49% 29.94 in 10.0 mi WSW 12.7 mph 21.9 mph 0.00 in Rain Light Rain
3:51 PM 84.0 °F 85.8 °F 64.9 °F 53% 29.94 in 10.0 mi WSW 13.8 mph - 0.00 in   Clear
4:51 PM 84.0 °F 86.3 °F 66.0 °F 55% 29.94 in 10.0 mi WSW 13.8 mph 24.2 mph 0.00 in   Clear
5:51 PM 84.0 °F 85.8 °F 64.9 °F 53% 29.94 in 10.0 mi SW 9.2 mph - 0.00 in   Partly Cloudy
6:51 PM 82.0 °F 84.1 °F 66.0 °F 58% 29.96 in 10.0 mi West 10.4 mph 18.4 mph 0.00 in Rain Light Rain
7:51 PM 73.0 °F - 66.9 °F 81% 29.97 in 10.0 mi ESE 3.5 mph - 0.00 in   Mostly Cloudy
8:51 PM 73.0 °F - 66.9 °F 81% 29.93 in 10.0 mi ESE 4.6 mph - N/A   Scattered Clouds
9:51 PM 73.0 °F - 66.0 °F 79% 29.91 in 10.0 mi SE 5.8 mph - N/A   Clear
10:51 PM 73.0 °F - 66.0 °F 79% 29.91 in 10.0 mi Variable 3.5 mph - N/A   Clear
11:51 PM 72.0 °F - 66.0 °F 81% 29.90 in 10.0 mi South 4.6 mph - N/A   Clear